ALOS (DAICHI) (28931 NORAD) Tracking and Keplerian Element Data

This shows tracking and keplerian element data for the satellite.

Feedback or suggestion? Click here.




ElementValue
Catalog28931
NameALOS (DAICHI)
Epoch Orbit85212
Epoch Day15.93492787
Epoch Year2022
RAAN346.7024
Inclination97.9149
Eccentricity0.0002209
Argument of Perigee72.8953
Mean Anonmoly287.2491
Mean Motion14.6296335
Decay Rate3E-06
L11 28931U 06002A 22015.93492787 .00000300 00000+0 67368-4 0 9996
L22 28931 97.9149 346.7024 0002209 72.8953 287.2491 14.62963350852127

Live tracking and technical data element details for ALOS (DAICHI) (NORAD 28931). ALOS (DAICHI) can be tracked NOW for your location showing map with azimuth and elevation plus other details from your city location.

Track the satellite on the map from your city or location and see movement details for azimuth, elevation, latitude, longitude, range, height, and movement on the map or in text.







IsCatalogInMostPopularTable: catalog: 28931, numindb: 367
Update: records affected: 1



GetName: 28931 ALOS (DAICHI)

Hit Count: updated at: Mon, 17 Jan 2022 00:26:12 GMT